This is the latest recevied weather packets stored in our database for station/object KC8SWY-15. If no packets are shown the sender has not sent any weather packets the latest 10 day(s).
| Time | Temp. | Humidity | Pressure | Rain* | Wind** | Luminosity | Snow |
|---|---|---|---|---|---|---|---|
| 1777755882 | 9.44° C | 40% | 1018.6 hPa | 0 mm | - | - | - |
| 1777755582 | 8.89° C | 38% | 1018.7 hPa | 0 mm | - | - | - |
| 1777755282 | 8.89° C | 39% | 1018.6 hPa | 0 mm | - | - | - |
| 1777754982 | 8.89° C | 40% | 1018.7 hPa | 0 mm | - | - | - |
| 1777754682 | 9.44° C | 41% | 1018.7 hPa | 0 mm | - | - | - |
| 1777754382 | 9.44° C | 41% | 1018.7 hPa | 0 mm | - | - | - |
| 1777754082 | 8.89° C | 40% | 1018.8 hPa | 0 mm | - | - | - |
| 1777753782 | 8.89° C | 40% | 1018.9 hPa | 0 mm | - | - | - |
| 1777753482 | 8.89° C | 43% | 1019.1 hPa | 0 mm | - | - | - |
| 1777753182 | 8.89° C | 40% | 1019 hPa | 0 mm | - | - | - |
| 1777752882 | 8.89° C | 42% | 1019.1 hPa | 0 mm | - | - | - |
| 1777752582 | 8.89° C | 40% | 1019.3 hPa | 0 mm | - | - | - |
| 1777752282 | 8.89° C | 40% | 1019.2 hPa | 0 mm | - | - | - |
| 1777751982 | 9.44° C | 41% | 1019.2 hPa | 0 mm | - | - | - |
| 1777751682 | 8.89° C | 45% | 1019.4 hPa | 0 mm | - | - | - |
| 1777751382 | 8.89° C | 43% | 1019.4 hPa | 0 mm | - | - | - |
| 1777751082 | 8.89° C | 44% | 1019.5 hPa | 0 mm | - | - | - |
| 1777750782 | 8.89° C | 43% | 1019.5 hPa | 0 mm | - | - | - |
| 1777750482 | 8.89° C | 43% | 1019.5 hPa | 0 mm | - | - | - |
| 1777750182 | 8.89° C | 45% | 1019.7 hPa | 0 mm | - | - | - |
| 1777749882 | 8.33° C | 43% | 1019.5 hPa | 0 mm | - | - | - |
| 1777749582 | 8.33° C | 44% | 1019.7 hPa | 0 mm | - | - | - |
| 1777749282 | 8.33° C | 45% | 1019.8 hPa | 0 mm | - | - | - |
| 1777748982 | 8.89° C | 43% | 1019.8 hPa | 0 mm | - | - | - |
| 1777748682 | 8.33° C | 44% | 1019.8 hPa | 0 mm | - | - | - |
* Rain latest hour (hover to see other rain measurements)
** Current wind speed in m/s (hover to see current wind gust speed)